[[{"header":{"parameterUnit":"m.s-1","parameterCategory":1,"la1":30.2991,"la2":30.254,"lo1":-89.0895,"lo2":-89.0444,"dy":0.0017,"dx":0.0017,"nx":28,"ny":28,"refTime":"2025-07-21T21:00:00:Z","depth":0,"parameterNumber":2,"parameterNumberName":"U-component_of_WINDS"},"data":[0,0,0,0,0,0,0,0,0,0,0,0,0,0,0,0,0,0,0,0,0,0,0,0,0,0,0,0,0,0,0,0,0,0,0,0,0,0,0,0,0,0,0,0,0,0,0,0,0,0,0,0,0,0,0,0,0,0,-2.5217,-2.5214,0,-2.4943,-2.494,-2.4937,-2.474,-2.4738,-2.4736,-2.4735,-2.4438,-2.4432,-2.4426,0,0,0,0,0,0,0,0,0,0,0,0,0,-2.5563,-2.5557,-2.5217,-2.5214,-2.521,-2.4944,-2.494,-2.4936,-2.474,-2.4738,-2.4736,-2.4734,-2.444,-2.4433,-2.4425,0,0,0,0,0,0,0,0,0,0,0,0,0,-2.5363,-2.5556,-2.5218,-2.5081,-2.5066,-2.4944,-2.494,-2.4935,-2.474,-2.4738,-2.4736,-2.4733,-2.4443,-2.4434,-2.4424,-2.4412,0,0,-2.4395,-2.439,0,0,0,0,0,0,0,0,-2.5374,-2.535,-2.5104,-2.509,-2.5073,-2.4873,-2.4952,-2.4759,-2.4741,-2.4863,-2.4735,-2.4732,-2.4584,-2.4563,-2.4516,-2.4398,-2.4385,-2.4394,-2.4388,-2.4384,-2.4381,0,0,0,0,0,0,0,-2.5388,-2.5361,-2.5108,-2.5101,-2.5082,-2.503,-2.4999,-2.4915,-2.4739,-2.4852,-2.4838,-2.4809,-2.4575,-2.4526,-2.4507,-2.4381,-2.4394,-2.4385,-2.4379,-2.4376,-2.4247,-2.4249,0,0,0,0,0,0,-2.5425,-2.5374,-2.5117,-2.51,-2.5222,-2.5026,-2.4991,-2.494,-2.474,-2.4708,-2.4811,-2.4801,-2.4543,-2.4519,-2.4496,-2.4471,-2.4384,-2.4375,-2.4369,-2.4244,-2.4247,-2.425,0,0,0,0,0,0,-2.5434,-2.5404,-2.5128,-2.5233,-2.5194,-2.5023,-2.4966,-2.4935,-2.4886,-2.4709,-2.4676,-2.4793,-2.454,-2.451,-2.4437,-2.4458,-2.437,-2.4362,-2.4241,-2.4245,-2.4248,-2.442,0,0,0,0,0,0,-2.5444,-2.5408,-2.5403,-2.5234,-2.5189,-2.5075,-2.4967,-2.4932,-2.4872,-2.4855,-2.4684,-2.4653,-2.4536,-2.4453,-2.4428,-2.4443,-2.4354,-2.4238,-2.4243,-2.4247,-2.4411,-2.4429,-2.4444,0,0,0,0,0,-2.5457,-2.5457,-2.5403,-2.5373,-2.5179,-2.5077,-2.505,-2.4921,-2.4874,-2.4866,-2.4755,-2.4658,-2.4463,-2.4447,-2.4417,-2.443,-2.4236,-2.4242,-2.4247,-2.4404,-2.4426,-2.4444,0,0,0,0,0,0,-2.5622,-2.5431,-2.537,-2.5316,-2.5216,-2.5044,-2.5028,-2.4947,-2.4852,-2.484,-2.4679,-2.4642,-2.4587,-2.4501,-2.4488,-2.4412,-2.4338,-2.4337,-2.4468,-2.4486,-2.4503,-2.4521,-2.4346,0,0,0,0,0,-2.5655,-2.5592,-2.5427,-2.5394,-2.5349,-2.52,-2.5149,-2.5061,-2.4947,-2.4901,-2.4783,-2.4674,-2.4588,-2.4533,-2.4444,-2.4402,-2.4362,-2.4397,-2.4414,-2.4428,-2.4427,-2.4402,-2.4416,-2.4267,-2.4267,-2.4267,0,0,-2.5715,-2.5604,-2.5571,-2.5425,-2.5336,-2.5273,-2.5163,-2.5098,-2.5049,-2.4889,-2.4814,-2.4727,-2.4594,-2.4539,-2.4508,-2.4465,-2.4462,-2.4435,-2.4448,-2.4438,-2.4409,-2.4423,-2.4436,-2.4271,-2.427,-2.4269,0,0,-2.5793,-2.5704,-2.5669,-2.5587,-2.5458,-2.5361,-2.5355,-2.5199,-2.5136,-2.5062,-2.4943,-2.4882,-2.4736,-2.4648,-2.4585,-2.4648,-2.4555,-2.4623,-2.4704,-2.4682,-2.4694,-2.4703,-2.4725,-2.4734,-2.4624,-2.4625,-2.4625,0,-2.5882,-2.5785,-2.566,-2.5606,-2.5546,-2.5411,-2.5375,-2.5299,-2.5146,-2.5106,-2.5065,-2.4886,-2.4786,-2.4711,-2.4728,-2.4681,-2.4667,-2.4636,-2.4704,-2.4712,-2.4718,-2.4737,-2.4746,-2.4634,-2.4633,-2.4632,-2.4631,0,-2.5903,-2.5839,-2.5826,-2.5691,-2.5631,-2.5586,-2.5453,-2.5407,-2.5328,-2.5236,-2.5165,-2.5045,-2.4931,-2.4908,-2.4825,-2.4823,-2.4801,-2.4735,-2.4655,-2.4744,-2.4758,-2.4765,-2.4647,-2.4643,-2.4641,-2.4638,0,0,-2.6062,-2.5872,-2.5868,-2.5809,-2.5664,-2.561,-2.5563,-2.546,-2.5423,-2.5327,-2.528,-2.5169,-2.5109,-2.5038,-2.4946,-2.4929,-2.4988,-2.4863,-2.4858,-2.4888,-2.4978,-2.5026,-2.5036,-2.4931,-2.4932,-2.4932,-2.4988,0,-2.6115,-2.6025,-2.5918,-2.5862,-2.5803,-2.5681,-2.564,-2.5546,-2.5463,-2.5398,-2.5304,-2.5227,-2.5155,-2.5112,-2.509,-2.4985,-2.5002,-2.4981,-2.4882,-2.488,-2.4913,-2.5043,-2.509,-2.5149,-2.4993,-2.4994,-2.4995,0,-2.616,-2.608,-2.6022,-2.5892,-2.5863,-2.5827,-2.5729,-2.5671,-2.5564,-2.5505,-2.5435,-2.534,-2.5283,-2.5222,-2.514,-2.5128,-2.5084,-2.5028,-2.5027,-2.5006,-2.4937,-2.5022,-2.5164,-2.5171,-2.5003,-2.5002,-2.5002,0,-2.6281,-2.6158,-2.6109,-2.6062,-2.5909,-2.5888,-2.5823,-2.5715,-2.5664,-2.5578,-2.5543,-2.5451,-2.5398,-2.5328,-2.5212,-2.5178,-2.5145,-2.5071,-2.5091,-2.5094,-2.508,-2.5081,-2.5213,-2.5063,-2.5063,-2.5063,-2.5063,0,-2.6347,-2.6316,-2.6163,-2.6131,-2.6095,-2.5975,-2.594,-2.5864,-2.5772,-2.5723,-2.5613,-2.5568,-2.5421,-2.536,-2.527,-2.5217,-2.5195,-2.5143,-2.5118,-2.5149,-2.5156,-2.5111,-2.5102,-2.5065,-2.5064,-2.5064,-2.5064,0,-2.647,-2.6367,-2.6306,-2.6173,-2.6139,-2.6117,-2.6,-2.5966,-2.5884,-2.5823,-2.5802,-2.5669,-2.5592,-2.5474,-2.5359,-2.5299,-2.5261,-2.5222,-2.5298,-2.5281,-2.5307,-2.5305,-2.5408,-2.5415,-2.5268,-2.527,-2.5271,0,-2.6516,-2.6491,-2.6359,-2.6323,-2.6264,-2.6205,-2.6155,-2.604,-2.5992,-2.5877,-2.5857,-2.5775,-2.57,-2.5584,-2.5475,-2.5389,-2.5345,-2.5388,-2.5329,-2.5365,-2.5341,-2.5342,-2.5339,-2.5398,-2.54,-2.5402,-2.5404,0,-2.6607,-2.6562,-2.6497,-2.6418,-2.6365,-2.6295,-2.6219,-2.6195,-2.6062,-2.6015,-2.594,-2.5885,-2.5776,-2.5694,-2.5596,-2.5525,-2.5441,-2.5426,-2.5425,-2.5452,-2.5496,-2.5471,-2.5329,-2.542,-2.5419,-2.5418,-2.5417,-2.5416,-2.6689,-2.6664,-2.6571,-2.6505,-2.644,-2.6375,-2.6338,-2.6257,-2.6194,-2.6099,-2.6036,-2.5966,-2.5868,-2.5729,-2.5665,-2.5607,-2.5569,-2.5569,-2.5567,-2.5568,-2.5579,-2.5514,-2.5589,-2.5588,-2.5587,-2.5587,-2.5586,0,-2.6773,-2.6711,-2.6653,-2.6557,-2.6507,-2.6446,-2.6362,-2.6322,-2.6264,-2.6183,-2.6118,-2.6035,-2.596,-2.5851,-2.5767,-2.5742,-2.5702,-2.5723,-2.5719,-2.5705,-2.5617,-2.5625,-2.5757,-2.5757,-2.5757,-2.5757,-2.5757,-2.5757,-2.681,-2.6765,-2.6711,-2.6634,-2.657,-2.6506,-2.6464,-2.6404,-2.634,-2.6255,-2.6195,-2.6129,-2.6037,-2.5948,-2.5876,-2.5846,-2.5818,-2.5851,-2.5808,-2.5726,-2.571,-2.5695,-2.5701,-2.5847,-2.5847,-2.59,-2.59,-2.5901]},{"header":{"parameterUnit":"m.s-1","parameterCategory":1,"la1":30.2991,"la2":30.254,"lo1":-89.0895,"lo2":-89.0444,"dy":0.0017,"dx":0.0017,"nx":28,"ny":28,"refTime":"2025-07-21T21:00:00:Z","depth":0,"parameterNumber":3,"parameterNumberName":"V-component_of_WINDS"},"data":[0,0,0,0,0,0,0,0,0,0,0,0,0,0,0,0,0,0,0,0,0,0,0,0,0,0,0,0,0,0,0,0,0,0,0,0,0,0,0,0,0,0,0,0,0,0,0,0,0,0,0,0,0,0,0,0,0,0,0.0609,0.061,0,0.0744,0.0745,0.0747,0.0811,0.0811,0.0811,0.0811,0.0956,0.096,0.0964,0,0,0,0,0,0,0,0,0,0,0,0,0,0.0409,0.0412,0.0609,0.0611,0.0612,0.0743,0.0745,0.0747,0.0811,0.0811,0.0811,0.0811,0.0955,0.0959,0.0964,0,0,0,0,0,0,0,0,0,0,0,0,0,0.0515,0.0414,0.0609,0.066,0.0666,0.0743,0.0745,0.0748,0.0811,0.0811,0.0811,0.0811,0.0953,0.0959,0.0965,0.1004,0,0,0.0983,0.0985,0,0,0,0,0,0,0,0,0.0509,0.0522,0.0651,0.0656,0.0663,0.076,0.0728,0.0834,0.0811,0.0756,0.0811,0.0811,0.0891,0.0902,0.0928,0.101,0.1017,0.0983,0.0987,0.0989,0.0991,0,0,0,0,0,0,0,0.0502,0.0517,0.0662,0.0652,0.066,0.0677,0.0691,0.0748,0.0823,0.0761,0.0766,0.078,0.0895,0.0922,0.0932,0.1019,0.0983,0.0988,0.0992,0.0994,0.1134,0.1134,0,0,0,0,0,0,0.0485,0.0511,0.0658,0.0666,0.0584,0.068,0.0697,0.0729,0.0823,0.0836,0.078,0.0783,0.0912,0.0925,0.0937,0.0987,0.0989,0.0995,0.0998,0.1134,0.1134,0.1134,0,0,0,0,0,0,0.0481,0.0498,0.0653,0.059,0.0611,0.0684,0.072,0.0732,0.076,0.0837,0.0851,0.0795,0.0913,0.0929,0.0985,0.0993,0.0998,0.1003,0.1134,0.1134,0.1134,0.1088,0,0,0,0,0,0,0.0475,0.0496,0.0512,0.0589,0.0614,0.0698,0.072,0.0735,0.0769,0.0773,0.0854,0.0868,0.0914,0.0976,0.0991,0.1001,0.1008,0.1134,0.1134,0.1134,0.1089,0.1086,0.1084,0,0,0,0,0,0.0467,0.0496,0.0512,0.053,0.0635,0.0698,0.0712,0.0763,0.0769,0.0786,0.0834,0.0865,0.0988,0.0981,0.0999,0.1011,0.1133,0.1134,0.1134,0.109,0.1087,0.1084,0,0,0,0,0,0,0.0423,0.0508,0.0527,0.0581,0.0631,0.0709,0.0732,0.0758,0.081,0.0813,0.0875,0.0892,0.0942,0.0982,0.0972,0.105,0.1064,0.1067,0.1024,0.1021,0.1019,0.101,0.1012,0,0,0,0,0,0.0418,0.046,0.0533,0.0574,0.0598,0.0659,0.0689,0.0722,0.0778,0.0801,0.0854,0.0909,0.0959,0.0992,0.1043,0.1092,0.1111,0.1109,0.1106,0.1104,0.1108,0.1134,0.1134,0.1136,0.1136,0.1136,0,0,0.0412,0.0463,0.0487,0.0566,0.0609,0.0652,0.0678,0.0724,0.0757,0.0809,0.0865,0.0904,0.0968,0.102,0.1046,0.1055,0.111,0.1104,0.1102,0.1108,0.1134,0.1134,0.1134,0.1136,0.1136,0.1136,0,0,0.0422,0.0464,0.0502,0.0542,0.0604,0.0643,0.0651,0.0723,0.0751,0.0805,0.0844,0.0883,0.097,0.1013,0.1047,0.1062,0.1092,0.1076,0.1066,0.109,0.109,0.109,0.1095,0.1097,0.1079,0.1079,0.1079,0,0.0407,0.0472,0.0518,0.056,0.0592,0.0635,0.0673,0.071,0.0787,0.0809,0.0816,0.0921,0.0968,0.1029,0.1031,0.1057,0.1068,0.1071,0.1086,0.1086,0.1087,0.1093,0.1095,0.1077,0.1077,0.1077,0.1078,0,0.0449,0.0493,0.0516,0.0583,0.0618,0.0658,0.0709,0.0739,0.0766,0.0804,0.0857,0.0913,0.0974,0.099,0.102,0.1053,0.1057,0.1073,0.1089,0.1084,0.109,0.1093,0.1074,0.1075,0.1075,0.1076,0,0,0.0444,0.0529,0.0537,0.0566,0.0633,0.0669,0.0708,0.0763,0.0787,0.0836,0.0871,0.0938,0.0952,0.0989,0.1023,0.1044,0.105,0.1058,0.1061,0.1055,0.1089,0.1077,0.1079,0.1068,0.1068,0.1069,0.1083,0,0.0464,0.0535,0.0574,0.0629,0.0668,0.0705,0.0738,0.0783,0.0817,0.0857,0.0895,0.0942,0.0957,0.0979,0.1001,0.1045,0.1058,0.1044,0.1102,0.1104,0.1088,0.1083,0.1072,0.1084,0.1086,0.1087,0.1087,0,0.0501,0.0543,0.06,0.0657,0.0675,0.0705,0.0756,0.0792,0.0842,0.0865,0.0901,0.0933,0.0975,0.0981,0.104,0.1029,0.1054,0.1078,0.1079,0.109,0.1098,0.1095,0.1089,0.1092,0.1092,0.1091,0.1091,0,0.049,0.0562,0.0605,0.0628,0.0696,0.0715,0.0744,0.0793,0.0822,0.0866,0.0885,0.0934,0.0962,0.0999,0.1043,0.1044,0.1096,0.1107,0.1117,0.1116,0.1131,0.113,0.1131,0.1142,0.1142,0.1142,0.1142,0,0.0511,0.0546,0.06,0.0627,0.0665,0.0706,0.0743,0.0775,0.0816,0.085,0.0884,0.0915,0.0968,0.1006,0.1039,0.1081,0.1093,0.1114,0.1123,0.1113,0.111,0.1133,0.1134,0.1142,0.1142,0.1142,0.1142,0,0.051,0.0548,0.0596,0.0652,0.0667,0.0692,0.0741,0.0768,0.0799,0.0841,0.0853,0.0905,0.0949,0.0994,0.1056,0.1078,0.1119,0.1131,0.1102,0.1108,0.1115,0.1114,0.1134,0.1139,0.1143,0.1143,0.1143,0,0.0523,0.0549,0.0605,0.0627,0.0654,0.0691,0.0718,0.0758,0.0785,0.0839,0.0859,0.0904,0.0944,0.1013,0.1057,0.1102,0.1116,0.1119,0.1124,0.1111,0.1118,0.1117,0.1119,0.112,0.1119,0.1119,0.1119,0,0.0541,0.0556,0.0593,0.0634,0.0664,0.07,0.0737,0.0754,0.08,0.0829,0.0872,0.0901,0.096,0.1005,0.1054,0.1085,0.111,0.1115,0.1121,0.1112,0.1095,0.1105,0.11,0.1117,0.1117,0.1117,0.1117,0.1117,0.0549,0.0571,0.0612,0.065,0.068,0.0712,0.0738,0.077,0.0806,0.0854,0.0875,0.0918,0.0961,0.1029,0.1058,0.1093,0.11,0.1108,0.111,0.1112,0.1109,0.1085,0.1102,0.1102,0.1102,0.1102,0.1102,0,0.0569,0.0595,0.0629,0.0676,0.0705,0.0718,0.0758,0.0782,0.0819,0.0855,0.089,0.0938,0.0979,0.1022,0.1066,0.1085,0.1097,0.1096,0.1097,0.1103,0.11,0.1092,0.1085,0.1085,0.1085,0.1085,0.1085,0.1085,0.0584,0.0622,0.064,0.0692,0.0719,0.0758,0.0779,0.0808,0.0836,0.0886,0.0919,0.0945,0.0984,0.1029,0.1067,0.1079,0.1094,0.1089,0.1105,0.1102,0.1104,0.1105,0.1098,0.1092,0.1092,0.1105,0.1105,0.1105]}]]